Regional Weather Roundup
Issued by NWS

Home | Current Version | Previous Version | Text Only | Print | Product List | Glossary Off
Versions: 1 2 3 4 5 6 7 8 9 10 11 12 13 14 15 16 17 18 19 20 21 22 23 24 25 26 27 28 29 30 31 32 33 34 35 36 37 38 39 40 41 42 43 44 45 46 47 48 49 50

000
ASUS43 KDTX 111010
RWRMI
MICHIGAN HOURLY REGIONAL WEATHER ROUNDUP
NATIONAL WEATHER SERVICE DETROIT/PONTIAC MI
600 AM EDT FRI JUL 11 2014

NOTE: "FAIR" INDICATES FEW OR NO CLOUDS BELOW 12,000 FEET WITH NO
SIGNIFICANT WEATHER AND/OR OBSTRUCTION TO VISIBILITY.

MIZ047>049-052>055-059>063-066>070-074>076-081>083-111100-
SOUTHEAST LOWER MICHIGAN

CITY           SKY/WX    TMP DP  RH WIND       PRES   REMARKS
ADRIAN         CLEAR     57  56  96 N5        30.23R
ALMA             N/A     51  50  96 CALM      30.23R FOG
ANN ARBOR      CLEAR     56  53  90 NE3       30.22S
BAD AXE        PTCLDY    46  45  97 CALM      30.24S
CARO           CLEAR     50  50 100 CALM      30.23R
DETROIT CITY   CLEAR     61  54  77 CALM      30.23S
DETROIT        PTCLDY    58  55  90 N3        30.23S
FLINT          CLEAR     57  52  83 CALM      30.23S
GROSSE ILE     CLEAR     61  57  88 CALM      30.21S
HILLSDALE      CLEAR     53  53  99 CALM      30.23R FOG
HOWELL         CLEAR     55  55  97 CALM      30.23R

CITY           SKY/WX    TMP DP  RH WIND       PRES   REMARKS
JACKSON        CLEAR     54  52  93 CALM      30.22S
LAMBERTVILLE     N/A     57  55  94 CALM      30.22R FOG
LANSING        CLEAR     58  55  90 E3        30.23R
LAPEER         FAIR      52  51  97 CALM      30.23S
MASON          FOG       54  53  97 CALM      30.23S VSB 1/2
MONROE         CLEAR     59  57  94 CALM      30.20S FOG
MT. CLEMENS    CLEAR     55  55  99 NW2       30.22S
PONTIAC        PTCLDY    57  53  86 CALM      30.23S
PORT HOPE        N/A     52  49  89 SW5       30.21S
PORT HURON     CLEAR     48  48 100 CALM      30.23S FOG
TRI CITIES     CLEAR     57  54  89 CALM      30.24R
TROY           CLEAR     58  54  88 CALM      30.24S
SAGINAW HB     CLEAR     55  54  94 CALM      30.23R
$$
MIZ043>046-050>051-056>058-064>065-071>073-077>080-111100-
SOUTHWEST LOWER MICHIGAN

CITY           SKY/WX    TMP DP  RH WIND       PRES   REMARKS
BATTLE CREEK   CLEAR     56  52  86 CALM      30.23R
BENTON HARBOR  PTCLDY    51  50  96 CALM      30.20S
BIG RAPIDS     CLEAR     50  50 100 CALM      30.22R
COLDWATER      CLEAR     55  55  97 CALM      30.22R FOG
FREMONT        FAIR      53  53 100 E3        30.20S
HOLLAND        CLEAR     57  53  86 CALM      30.21S
GRAND RAPIDS   PTCLDY    56  53  90 E5        30.22S
IONIA          FOG       52  52  99 CALM      30.22S VSB 1/2
KALAMAZOO      CLEAR     54  51  90 CALM      30.23R
LUDINGTON      MOCLDY    55  53  94 CALM      30.19S
MARSHALL         N/A     52  50  93 CALM      30.22R
MOUNT PLEASANT FOG       50  50  99 CALM      30.22S VSB 1/2
MUSKEGON       MOCLDY    57  52  83 CALM      30.20S
SOUTH HAVEN    CLEAR     53  53 100 CALM      30.20F
$$
MIZ016>042-111100-
NORTHERN LOWER MICHIGAN

CITY           SKY/WX    TMP DP  RH WIND       PRES   REMARKS
ALPENA         CLEAR     45  42  89 CALM      30.21S
BEAVER ISLAND  PTCLDY    58  53  83 S3        30.16F
BELLAIRE       CLEAR     47  46  95 CALM      30.19S
CADILLAC       FOG       44  44 100 CALM      30.21S VSB 1/2
CHARLEVOIX     PTCLDY    54  51  90 SE6       30.20F
FRANKFORT      PTCLDY    52  48  87 CALM      30.18S
GAYLORD        CLEAR     50  47  89 W3        30.21S
GRAYLING       CLEAR     40  40  99 CALM      30.23R
HARBOR SPRINGS CLEAR     52  50  93 CALM      30.17F
HOUGHTON LAKE  CLEAR     44  43  96 CALM      30.23R
MANISTEE       PTCLDY    50  46  87 E3        30.20R
OSCODA         CLEAR     46  44  90 CALM      30.22S
PELLSTON       CLEAR     43  42  97 CALM      30.19R
ROGERS CITY    CLEAR     53  50  90 SW8       30.20S
TRAVERSE CITY  CLEAR     53  50  89 CALM      30.18S
$$
MIZ007>008-015-111100-
EASTERN UPPER MICHIGAN

CITY           SKY/WX    TMP DP  RH WIND       PRES   REMARKS
KINROSS        MOCLDY    52  52 100 SE7       30.17S
MACKINAC ISLAN CLEAR     57  53  86 S8        30.17S
NEWBERRY       PTCLDY    56  50  80 SW9       30.15S
S. S. MARIE    MOCLDY    51  47  86 E5        30.17S
MUNISING         N/A     58  50  75 S9        30.10F
$$
MIZ004>006-011>014-085-111100-
CENTRAL UPPER MICHIGAN

CITY           SKY/WX    TMP DP  RH WIND       PRES   REMARKS
MANISTIQUE     PTCLDY    54  52  93 S6        30.14F
ESCANABA       CLOUDY    61  52  72 S5        30.12S
MENOMINEE      MOCLDY    64  52  63 SW8       30.11S
SAWYER-GWINN   MOCLDY    57  51  82 S9        30.11S
$$
MIZ001>003-009>011-084-111100-
WESTERN UPPER MICHIGAN

CITY           SKY/WX    TMP DP  RH WIND       PRES   REMARKS
IRON MOUNTAIN  PTCLDY    55  52  89 SE5       30.10S
HOUGHTON       PTCLDY    61  56  83 S8        30.03F
COPPER HARBOR    N/A     65  57  75 SW10      30.01S
$$

ABBREVIATIONS USED IN REMARKS
   TC - TEMPERATURE IN CELSIUS
  WCI - WIND CHILL INDEX
   HX - HEAT INDEX
  VSB - VISIBILITY



USA.gov is the U.S. government's official web portal to all federal, state and local government web resources and services.